Skip Page Navigation
NASA JPL Caltech
NASA Logo - Jet Propulsion Laboratory + View the NASA Portal
+ Center for Near-Earth Object Studies
JPL Home Earth Solar System Stars & Galaxies Technology
JPL Solar System Dynamics
BODIES ORBITS EPHEMERIDES TOOLS PHYSICAL DATA DISCOVERY FAQ SITE MAP
JPL Small-Body Database Browser
Search: [ help ]  
115053 (2003 RP6)
Classification: Main-belt Asteroid          SPK-ID: 2115053
Ephemeris | Orbit Diagram | Orbital Elements | Mission Design | Physical Parameters | Discovery Circumstances | Close-Approach Data ]

[ show orbit diagram ]
Orbital Elements at Epoch 2459200.5 (2020-Dec-17.0) TDB
Reference: JPL 27 (heliocentric ecliptic J2000)
 Element Value Uncertainty (1-sigma)   Units 
e .2584645557023464 3.7635e-08  
a 3.10399172502433 1.7209e-08 au
q 2.301719882912157 1.1927e-07 au
i 11.7966213272759 4.6297e-06 deg
node 137.8357868023234 2.0256e-05 deg
peri 219.7248335525553 2.2115e-05 deg
M 59.13451534290964 8.5081e-06 deg
tp 2458872.391259255457
(2020-Jan-23.89125926)
4.6235e-05 TDB
period 1997.46537167144
5.47
1.6611e-05
4.548e-08
d
yr
n .1802284060117443 1.4988e-09 deg/d
Q 3.906263567136503 2.1657e-08 au
  Orbit Determination Parameters
   # obs. used (total)      715  
   data-arc span      7687 days (21.05 yr)  
   first obs. used      2000-01-28  
   last obs. used      2021-02-13  
   planetary ephem.      DE441  
   SB-pert. ephem.      SB441-N16  
   condition code      0  
   norm. resid. RMS      .51707  
   source      ORB  
   producer      Otto Matic  
   solution date      2021-Apr-13 16:41:49  

Additional Information
 Earth MOID = 1.30866 au 
 Jupiter MOID = 1.59157 au 
 T_jup = 3.137 
[ show covariance matrix ]

Ephemeris | Orbit Diagram | Orbital Elements | Mission Design | Physical Parameters | Discovery Circumstances | Close-Approach Data ]

Physical Parameter Table
Parameter Symbol Value Units Sigma Reference Notes
absolute magnitude H 14.77   n/a MPCxxxxx  
diameter diameter 4.542 km 0.317 urn:nasa:pds:neowise_diameters_albedos::2.0[mainbelt] (http://adsabs.harvard.edu/abs/2011ApJ...741...68M)  
rotation period rot_per 24.2 h n/a LCDB (Rev. 2020-October); Warner et al., 2009 Result based on less than full coverage, so that the period may be wrong by 30 percent or so.
Published Reference List:
[Warner, B.D.; Stephens, R.D. (2019) Minor Planet Bull. 46, 144-152.]
geometric albedo albedo 0.149   0.022 urn:nasa:pds:neowise_diameters_albedos::2.0[mainbelt] (http://adsabs.harvard.edu/abs/2011ApJ...741...68M)  

115053 (2003 RP6)          Discovered 2003-Sep-01 by LINEAR at Socorro
Reference: 20051019/Numbers.arcLast Updated: 2005-10-26

[ show close-approach data ]
Alternate Designations
 2003 RP6 = 2000 BE45 
Ephemeris | Orbit Diagram | Orbital Elements | Mission Design | Physical Parameters | Discovery Circumstances | Close-Approach Data ]
ABOUT SSD CREDITS/AWARDS PRIVACY/COPYRIGHT GLOSSARY LINKS
FirstGov 2021-May-13 23:22 UT
(server date/time)  
NASA Home Page
Site Manager:   Ryan S. Park
Webmaster  Alan B. Chamberlin